Location: G�yn�k
(36.6721°N, 30.5542°E)
Time: 23:04:28
(UTC+00:00)

BREEZE-M DEB (TANK) - Pass Details

Date: 07 June 2020
Orbit: 324 x 12054 km, 49.6° (Epoch: 07 July)

Event Time Altitude Azimuth Distance (km) Brightness Sun altitude
Rises 01:28:20 0° 319° (NW) 2,092 5.1 -12.4°
Reaches altitude 10° 01:30:05 10° 337° (NNW) 1,374 4.4 -12.1°
Maximum altitude 01:32:21 24° 37° (NE) 1,059 4.6 -11.8°
Drops below altitude 10° 01:36:19 10° 93° (E) 2,491 6.2 -11.2°
Sets 01:40:58 0° 105° (ESE) 4,596 7.4 -10.5°
